Location: Brantford
(43.1330°N, 80.2670°W)
Time: 05:37:37
(UTC-05:00)

ISS - Pass Details

Date: 29 October 2019
Orbit: 412 x 421 km, 51.6° (Epoch: 15 November)

Event Time Altitude Azimuth Distance (km) Brightness Sun altitude
Exits shadow 06:08:59 57° 337° (NNW) 500 -3.6 -19.3°
Drops below altitude 10° 06:12:16 10° 51° (NE) 1,507 -0.2 -18.7°
Sets 06:14:23 0° 56° (NE) 2,373 1.0 -18.3°
